Tracking 19477 objects as of 16-Jan-2019
HD Live streaming from Space Station
objects crossing your sky now

COSMOS 1171

Track COSMOS 1171 now!
10-day predictions
COSMOS 1171 is classified as:


NORAD ID: 11750
Int'l Code: 1980-026A
Perigee: 975.2 km
Apogee: 1,011.6 km
Inclination: 65.8 °
Period: 104.8 minutes
Semi major axis: 7364 km
RCS: 1.3926 m2 (large)
Launch date: April 3, 1980
Source: Commonwealth of Independent States (former USSR) (CIS)
Launch site: PLESETSK MISSILE AND SPACE COMPLEX (PKMTR)
aabbcc
Your satellite tracking list
Your tracking list is empty




NASA's NSSDC Master Catalog

Two Line Element Set (TLE):
1 11750U 80026A   19015.95887479 -.00000080 +00000-0 +70995-6 0  9998
2 11750 065.8415 308.4386 0024702 209.6037 216.6271 13.73704349945407
Source of the keplerian elements: AFSPC